Location: Czarna Huta
(50.4618°N, 18.8696°E)
Time: 00:20:43
(UTC+00:00)

Daily predictions for brighter satellites

Satellite Brightness Start Highest point End
(mag) Time Altitude Azimuth Time Altitude Azimuth Time Altitude Azimuth
Cosmos 2333 Rocket 4.1 02:22:34 23° NE 02:22:34 23° NE 02:24:41 10° NNE
Cosmos 2360 Rocket 4.3 02:33:39 18° NNE 02:33:39 18° NNE 02:35:07 10° NNE
Cosmos 2322 Rocket 4.5 02:38:25 15° N 02:38:25 15° N 02:39:29 10° NNE
COSMOS 2428 4.1 02:43:07 33° NE 02:43:07 33° NE 02:46:07 10° NNE
ATLAS CENTAUR R/B 4.3 02:55:33 13° E 02:55:33 13° E 02:56:23 10° ENE
USA 215 3.3 02:50:04 10° ENE 02:55:54 70° NNE 02:55:54 70° NNE
NOSS 0 Rocket 4.2 03:01:38 63° ESE 03:01:39 63° ESE 03:07:44 10° NE
ALOS 4.2 02:57:20 10° NNE 02:59:22 25° NNE 02:59:22 25° NNE
CZ-2C R/B 4.4 03:03:40 10° NNE 03:05:19 21° N 03:05:19 21° N
Cosmos 1943 Rocket 3.6 03:09:37 24° N 03:12:02 34° NE 03:17:10 10° ESE
SL-4 R/B 4.1 03:19:55 23° ESE 03:19:55 23° ESE 03:22:02 10° E
Cosmos 540 Rocket 3.7 03:21:48 64° ENE 03:21:48 64° ENE 03:26:24 10° NNE
Cosmos 2369 Rocket 4.0 03:18:43 16° N 03:21:59 27° NE 03:26:41 10° E
USA 306 4.5 03:26:28 30° SE 03:26:28 30° SE 03:29:52 10° ENE
Cosmos 2278 Rocket 4.1 03:36:40 16° S 03:36:40 16° S 03:37:45 10° S
Cosmos 1461 4.3 03:35:01 36° NNE 03:35:01 36° NNE 03:38:05 10° NE
COSMO-SKYMED 1 3.0 03:31:29 10° SSE 03:35:19 59° ESE 03:35:19 59° ESE
SL-16 R/B 3.7 03:31:12 10° S 03:36:15 35° ESE 03:41:21 10° NE
CENTAUR R/B 4.3 03:33:21 10° S 03:38:21 29° ESE 03:44:03 10° NE
Cosmos 2219 Rocket 3.2 03:41:53 32° NNW 03:41:53 32° NNW 03:45:34 10° NNE
Cosmos 2237 Rocket 2.1 03:43:06 63° SW 03:44:07 86° WNW 03:49:52 10° NNE
Cosmos 2208 Rocket 4.2 03:42:48 27° S 03:45:47 72° ESE 03:51:11 10° NNE
ERS-2 2.8 03:47:28 10° SSE 03:50:34 53° ESE 03:50:34 53° ESE
H-2A R/B 4.5 03:49:12 10° NNE 03:52:35 32° E 03:55:58 10° SSE
Cosmos 1953 4.3 03:56:40 19° N 03:56:40 19° N 03:57:54 10° N
BREEZE-M DEB (TANK) 4.1 03:55:50 39° W 03:58:01 48° SW 04:02:01 10° SSE
Cosmos 1626 Rocket 4.2 04:00:29 41° SSW 04:00:29 41° SSW 04:03:28 10° S
Cosmos 1513 Rocket 4.4 03:57:03 38° SW 03:59:17 58° WNW 04:05:23 10° N
SKYMED 3 4.4 03:55:27 10° S 03:59:38 75° SW 03:59:38 75° SW
SWAS 4.4 04:00:24 65° SSW 04:00:59 83° ESE 04:05:18 10° NNE
Meteor 1-11 4.4 03:55:57 10° N 04:01:33 70° ENE 04:07:06 10° SSE
Cosmos 2333 Rocket 3.3 04:04:35 26° NNW 04:04:35 26° NNW 04:08:39 10° NNE
FENGYUN 3A 3.8 03:59:28 10° N 04:04:41 50° WNW 04:04:53 50° WNW
Lacrosse 4 Rocket 1.5 04:04:26 46° SSW 04:05:39 78° ESE 04:10:03 10° NE
Cosmos 2195 Rocket 4.5 03:59:30 10° N 04:05:49 83° E 04:12:01 10° S
Cosmos 1763 Rocket 4.4 04:07:15 31° NNW 04:07:15 31° NNW 04:11:03 10° N
Cosmos 2297 3.6 04:08:14 30° NW 04:11:14 76° WSW 04:16:57 10° SSE
Cosmos 1300 4.0 04:07:53 10° SSE 04:11:27 40° E 04:15:03 10° NNE
USA 238 DEB 4.2 04:05:56 10° SSW 04:12:21 58° SE 04:19:06 10° NE
USA 238 4.2 04:06:03 10° SSW 04:12:27 58° SE 04:19:12 10° NE
deb Chang Zheng 4 3.6 04:09:01 10° NNE 04:13:17 79° ESE 04:17:31 10° SSW
SAR-Lupe-4 3.5 04:11:18 10° SSE 04:14:54 84° ENE 04:15:59 43° N
Cosmos 2360 Rocket 4.0 04:15:25 15° NNW 04:15:25 15° NNW 04:18:20 10° N
Cosmos 1315 Rocket 4.3 04:11:35 10° SSE 04:15:13 38° E 04:18:52 10° NNE
Cosmos 1464 Rocket 4.1 04:13:46 27° SW 04:16:45 46° WNW 04:22:42 10° N
Cosmos 841 Rocket 3.6 04:16:53 44° W 04:17:42 48° WNW 04:22:44 10° NNE
Meteor 1-31 Rocket 3.4 04:14:29 10° N 04:17:17 40° NNW 04:17:17 40° NNW
Cosmos 1980 3.9 04:17:06 39° W 04:18:39 50° NW 04:24:11 10° NNE
MOS 1 Rocket 3.1 04:14:32 10° S 04:19:20 69° WSW 04:23:13 14° NNW
SL-16 R/B 4.3 04:18:48 11° NNW 04:19:21 11° NNW 04:20:46 10° N
Cosmos 2322 Rocket 4.3 04:20:13 11° NNW 04:20:32 11° NNW 04:22:18 10° N
Cosmos 1346 Rocket 2.7 04:18:51 20° NNW 04:21:34 88° E 04:25:34 10° SSE
SKYMED 2 3.8 04:19:45 10° S 04:23:54 44° W 04:23:56 44° W
Cosmos 1758 Rocket 3.5 04:20:18 10° N 04:24:50 85° W 04:29:17 10° S
COSMOS 2428 3.8 04:25:09 26° NW 04:25:20 26° NW 04:30:04 10° NNE
Cosmos 1627 Rocket 4.5 04:21:10 10° NNW 04:27:34 79° W 04:33:57 10° S
FALCON 9 DEB 3.1 04:28:14 57° NW 04:28:31 60° N 04:31:53 10° ENE
SAR-Lupe-1 3.9 04:27:43 10° S 04:31:16 64° WSW 04:32:40 34° NNW
ATLAS CENTAUR R/B 0.9 04:31:44 46° WSW 04:32:39 68° NW 04:36:20 10° NE
Cosmos 1689 Rocket 2.3 04:33:09 10° S 04:35:31 48° SW 04:35:31 48° SW
Cosmos 2150 Rocket 4.3 04:33:50 24° NW 04:36:45 46° WSW 04:41:53 10° S
Cosmos 1092 Rocket 4.0 04:31:26 10° NNW 04:37:26 56° W 04:43:28 10° S
Cosmos 2084 Rocket 4.4 04:37:18 29° WSW 04:37:36 29° WSW 04:41:30 10° S
ALOS 3.6 04:35:19 10° N 04:37:53 22° NW 04:37:53 22° NW
USA 215 3.6 04:33:00 10° ENE 04:39:16 52° N 04:43:15 23° WNW
Cosmos 1726 Rocket 4.3 04:37:24 10° S 04:41:36 55° E 04:45:51 10° NNE
Cosmos 1602 Rocket 4.1 04:40:25 28° NW 04:41:47 35° W 04:45:50 10° SSW
ADEOS 4.0 04:37:19 10° N 04:42:09 39° WNW 04:46:56 10° SW
Cosmos 1892 3.8 04:38:48 10° N 04:42:32 45° ENE 04:46:15 10° SSE
GEOS 3 Rocket 3.7 04:37:32 10° SSE 04:42:53 70° SW 04:46:52 19° NW
YAOGAN 6 2.7 04:39:58 10° NNE 04:43:42 81° E 04:47:24 10° S
BREEZE-M DEB (TANK) 1.6 04:44:16 59° SW 04:44:32 69° S 04:47:12 10° E
Cosmos 1908 4.2 04:45:31 28° NW 04:45:31 28° NW 04:48:10 10° N
Meteor 2-19 Rocket 4.3 04:39:30 10° NNW 04:45:38 75° W 04:51:41 10° S
In-Cosmos 22 Rocket 4.4 04:40:32 10° N 04:46:02 69° ENE 04:51:22 10° SSE
Cosmos 2279 Rocket 4.3 04:39:58 10° S 04:46:12 72° E 04:52:27 10° NNE
CZ-2C R/B 4.4 04:43:24 10° NNW 04:44:43 13° NNW 04:44:43 13° NNW
Cosmos 2292 Rocket 3.4 04:43:23 10° N 04:46:20 55° ENE 04:49:39 10° SSE
Cosmos 1328 4.5 04:46:59 30° W 04:47:01 30° W 04:50:28 10° SSW
USA 307 2.9 04:44:42 23° WSW 04:47:17 84° SSE 04:51:32 10° ENE
FALCON 9 DEB 4.2 04:46:55 14° SSW 04:49:15 37° SSE 04:52:09 10° ENE
Cosmos 2098 Rocket 3.5 04:47:37 10° NNW 04:53:22 60° W 04:57:54 10° S
PSLV R/B 3.9 04:49:23 10° NNE 04:53:24 83° ESE 04:57:28 10° SSW
USA 305 2.8 04:50:49 21° WSW 04:53:35 89° NNW 04:57:51 10° ENE
Cosmos 2263 4.4 04:49:07 10° NNW 04:54:48 74° ENE 05:00:30 10° SE
Cosmos 1400 Rocket 3.6 04:53:19 17° WSW 04:55:46 30° WNW 04:59:28 10° N
Cosmos 1943 Rocket 2.3 04:51:10 13° NW 04:56:04 54° WSW 05:01:34 10° S
USA 308 2.9 04:53:18 19° WSW 04:56:17 89° NNW 05:00:35 10° ENE
Okean O Rocket 3.2 04:52:35 10° NNE 04:56:40 37° E 05:00:42 10° SSE
Cosmos 1408 3.7 04:53:29 10° N 04:56:58 45° ENE 05:00:27 10° SSE
Cosmos 1825 Rocket 3.6 04:53:02 10° NNW 04:57:26 55° W 05:01:47 10° S
SMAP 3.9 04:53:14 10° NNE 04:57:49 54° E 05:02:22 10° S
SL-4 R/B 1.9 04:55:30 22° WSW 04:57:52 87° SSE 05:02:01 10° ENE
FALCON 9 DEB 4.2 04:55:02 10° SW 04:57:55 39° SSE 05:00:53 10° ENE
CZ-2C R/B 2.6 04:56:29 10° SSE 05:01:47 88° WSW 05:07:14 10° NNW
H-2A R/B 3.3 04:59:28 10° NNE 05:03:57 61° ESE 05:08:24 10° S
Envisat 2.9 04:59:45 10° N 05:04:51 72° WNW 05:09:54 10° SSW
USA 306 2.8 05:02:36 17° WSW 05:05:51 81° NNW 05:10:06 10° ENE
Cosmos 1125 Rocket 4.1 05:01:52 13° NW 05:06:08 36° WSW 05:10:56 10° SSW
Cosmos 2369 Rocket 2.1 05:00:57 10° NNW 05:06:34 73° WSW 05:12:07 10° SSE
NOSS 3-2 (A) 3.4 05:01:35 10° SW 05:07:23 69° NW 05:14:10 10° NE
Cosmos 1634 Rocket 4.0 05:02:32 10° SSW 05:08:34 55° WNW 05:14:40 10° N
CZ-4B R/B 3.5 05:06:31 10° N 05:09:41 28° WNW 05:12:56 10° SW
COSMO-SKYMED 1 4.1 05:09:36 10° SW 05:12:22 16° W 05:12:34 16° W
Meteor 2-10 Rocket 4.3 05:08:06 10° S 05:13:51 66° E 05:19:31 10° NNE
Cosmos 2266 Rocket 4.1 05:11:07 10° N 05:17:13 79° E 05:23:15 10° SSE
Cosmos 2228 3.2 05:14:35 10° SSW 05:18:40 46° WNW 05:22:47 10° N
SL-16 R/B 2.4 05:14:46 10° SW 05:20:14 48° NW 05:25:46 10° NNE
DMSP B5D2-2 4.1 05:15:08 10° SSE 05:20:24 86° WSW 05:25:44 10° NNW
CZ-4B R/B 3.7 05:14:58 10° NNE 05:20:38 67° ESE 05:26:10 10° S
NOSS 3-2 (C) 3.4 05:15:09 10° SW 05:20:56 83° NW 05:27:42 10° NE
SWARM A 4.2 05:17:38 10° N 05:20:59 88° E 05:24:18 10° S
Cosmos 1809 Rocket 4.5 05:15:54 10° NNW 05:22:08 83° W 05:28:19 10° S
Cosmos 1953 Rocket 3.8 05:18:34 10° NNW 05:22:43 45° W 05:26:52 10° SSW
ERBS 3.1 05:20:38 10° SW 05:23:50 52° SE 05:27:02 10° ENE
CORIOLIS 4.5 05:18:53 10° NNE 05:24:16 73° ESE 05:29:36 10° S
Cosmos 1943 4.0 05:19:10 10° S 05:24:44 59° ESE 05:30:21 10° NE
ERS-2 3.9 05:23:12 10° WSW 05:24:58 13° W 05:25:10 13° W
Cosmos 2219 Rocket 4.0 05:23:36 10° NW 05:26:00 13° NNW 05:28:31 10° N
H-2A R/B 3.7 05:23:35 10° N 05:26:38 24° WNW 05:29:42 10° WSW
CENTAUR R/B 2.6 05:22:10 10° SW 05:28:17 75° NW 05:35:39 10° NE
Cosmos 2237 Rocket 3.4 05:24:58 11° W 05:29:01 23° NW 05:33:29 10° NNE
CZ-4 R/B 4.1 05:29:41 10° NE 05:32:45 22° E 05:35:48 10° SE
Cosmos 1656 Rocket 3.6 05:27:29 10° NNW 05:32:57 76° WSW 05:38:20 10° SSE
Aureole 3 4.5 05:27:30 10° S 05:33:32 71° E 05:38:18 10° NNE
FALCON 9 DEB 3.2 05:31:05 10° WSW 05:34:13 68° SSE 05:37:21 10° ENE
Cosmos 1825 2.3 05:30:42 10° N 05:34:31 79° E 05:38:17 10° SSE
Cosmos 1606 Rocket 4.0 05:31:12 10° SW 05:35:12 36° WNW 05:39:14 10° N
NOAA 6 4.1 05:30:39 10° N 05:35:45 57° WNW 05:40:49 10° SW
Cosmos 1455 2.3 05:34:56 10° S 05:38:40 82° E 05:42:27 10° NNE
Cosmos 2058 2.8 05:34:33 10° NNW 05:38:42 79° W 05:42:47 10° S
AQUARIUS 4.1 05:36:12 10° N 05:40:42 69° WNW 05:45:09 10° SSW
FALCON 9 DEB 2.9 05:39:36 10° WSW 05:42:43 82° SSE 05:45:49 10° ENE
Lacrosse 4 Rocket 2.8 05:41:30 10° W 05:44:53 22° NW 05:48:19 10° NNE
Cosmos 1300 4.0 05:44:28 10° WSW 05:47:17 19° WNW 05:50:08 10° NNW
Cosmos 2333 Rocket 4.2 05:48:45 10° NNW 05:50:15 11° NNW 05:51:45 10° N
Cosmos 1315 Rocket 4.0 05:48:51 10° WSW 05:51:55 22° WNW 05:55:01 10° NNW
Cosmos 1655 Rocket 4.2 05:46:26 10° NNW 05:52:26 51° W 05:58:29 10° SSW
Cosmos 1812 Rocket 4.5 05:48:37 10° S 05:52:59 56° E 05:57:21 10° NNE
[s.n.47389] 3.4 05:51:11 10° SW 05:53:41 48° SSE 05:56:12 10° ENE
[s.n.47399] 3.4 05:51:13 10° SW 05:53:43 48° SSE 05:56:14 10° ENE
[s.n.47393] 3.4 05:51:15 10° SW 05:53:45 48° SSE 05:56:17 10° ENE
[s.n.47353] 3.4 05:51:19 10° SW 05:53:49 48° SSE 05:56:21 10° ENE
[s.n.47355] 3.4 05:51:21 10° SW 05:53:53 48° SSE 05:56:25 10° ENE
[s.n.47365] 3.4 05:51:24 10° SW 05:53:56 48° SSE 05:56:28 10° ENE
[s.n.47383] 3.4 05:51:29 10° SW 05:54:00 48° SSE 05:56:32 10° ENE
[s.n.47400] 3.4 05:51:29 10° SW 05:54:02 48° SSE 05:56:37 10° ENE
[s.n.47378] 3.4 05:51:35 10° SW 05:54:06 48° SSE 05:56:38 10° ENE
[s.n.47395] 3.4 05:51:38 10° SW 05:54:09 48° SSE 05:56:40 10° ENE
PAYLOAD B 4.4 05:48:45 10° N 05:54:12 54° WNW 05:59:37 10° SW
[s.n.47379] 3.4 05:51:45 10° SW 05:54:15 48° SSE 05:56:47 10° ENE
[s.n.47370] 3.4 05:51:45 10° SW 05:54:16 48° SSE 05:56:47 10° ENE
[s.n.47351] 3.4 05:51:46 10° SW 05:54:19 49° SSE 05:56:54 10° ENE
[s.n.47394] 3.4 05:51:51 10° SW 05:54:22 48° SSE 05:56:54 10° ENE
[s.n.47354] 3.4 05:51:55 10° SW 05:54:26 48° SSE 05:56:58 10° ENE
NOAA 11 4.2 05:49:09 10° N 05:54:36 69° WNW 05:59:59 10° SSW
